Weather History for Lebanon, NH

Change the Weather History Date:

Saturday, October 6, 2012

  Actual Average Record
Temperature  
Mean Temperature 57 °F -  
Max Temperature 69 °F 62 °F 82 °F (1947)
Min Temperature 46 °F 39 °F 22 °F (1984)
Degree Days  
Heating Degree Days 8    
Growing Degree Days 7 (Base 50)    
Moisture  
Dew Point 52 °F    
Average Humidity 78    
Maximum Humidity 90    
Minimum Humidity 56    
Precipitation  
Precipitation 0.02 in - - ()
Sea Level Pressure  
Sea Level Pressure 29.77 in    
Wind  
Wind Speed 4 mph (SW)    
Max Wind Speed 14 mph    
Max Gust Speed 26 mph    
Visibility 8 miles    
Events Rain    
Averages and records for this station are not official NWS values.
T = Trace of Precipitation, MM = Missing Value Source: NWS Daily Summary

Daily Weather History Graph

Daily Weather History Graph

Search for Another Location

Airport:

Trip Planner

Search our weather history database for the weather conditions in past years. The results will help you decide how hot, cold, wet, or windy it might be!

Date:

Astronomy

Oct. 06, 2012 Rise Set
Actual Time 6:53 AM EDT 6:20 PM EDT
Civil Twilight 6:24 AM EDT 6:49 PM EDT
Nautical Twilight 5:51 AM EDT 7:22 PM EDT
Astronomical Twilight 5:17 AM EDT 7:55 PM EDT
Moon 10:25 PM EDT (10/6) 12:54 PM EDT (10/6)
Length of Visible Light 12h 24m
Length of Day
11h 27m
Waning Gibbous, 65% of the Moon is Illuminated
Oct 6
Waning Gibbous
Oct 8
Last Quarter
Oct 15
New
Oct 21
First Quarter
Oct 29
Full

Hourly Weather History & Observations

Time (EDT) Temp. Dew Point Humidity Pressure Visibility Wind Dir Wind Speed Gust Speed Precip Events Conditions
12:53 AM 62.1 °F 57.0 °F 84% 29.85 in 10.0 mi Calm Calm - N/A   Mostly Cloudy
1:53 AM 61.0 °F 57.9 °F 90% 29.83 in 8.0 mi Calm Calm - 0.00 in   Overcast
2:53 AM 62.1 °F 57.9 °F 86% 29.81 in 9.0 mi Calm Calm - N/A   Overcast
3:53 AM 61.0 °F 57.9 °F 90% 29.78 in 9.0 mi Calm Calm - N/A   Scattered Clouds
4:53 AM 60.1 °F 57.0 °F 90% 29.78 in 8.0 mi Calm Calm - N/A   Overcast
5:53 AM 61.0 °F 55.9 °F 83% 29.77 in 4.0 mi SSW 8.1 mph - N/A   Clear
6:53 AM 57.9 °F 55.0 °F 90% 29.76 in 6.0 mi South 3.5 mph - N/A   Clear
7:46 AM 60.8 °F 55.4 °F 82% 29.77 in 7.0 mi South 4.6 mph - N/A   Partly Cloudy
7:53 AM 60.1 °F 55.9 °F 86% 29.75 in 6.0 mi South 3.5 mph - N/A   Mostly Cloudy
8:53 AM 62.1 °F 57.0 °F 84% 29.74 in 6.0 mi South 9.2 mph - N/A   Mostly Cloudy
9:00 AM 62.6 °F 57.2 °F 82% 29.76 in 8.0 mi South 9.2 mph - N/A   Scattered Clouds
9:53 AM 64.0 °F 57.0 °F 78% 29.73 in 8.0 mi WSW 6.9 mph - N/A   Mostly Cloudy
10:53 AM 68.0 °F 57.0 °F 68% 29.69 in 10.0 mi SSW 13.8 mph - N/A   Clear
11:53 AM 68.0 °F 55.9 °F 65% 29.67 in 10.0 mi South 12.7 mph - N/A   Clear
12:53 PM 68.0 °F 57.9 °F 70% 29.66 in 9.0 mi SSW 8.1 mph - 0.00 in Rain Light Rain
1:53 PM 64.9 °F 60.1 °F 84% 29.66 in 5.0 mi West 4.6 mph - 0.01 in Rain Light Rain
2:53 PM 60.1 °F 53.1 °F 78% 29.71 in 8.0 mi WNW 12.7 mph 26.5 mph 0.01 in Rain Light Rain
3:22 PM 57.2 °F 51.8 °F 82% 29.75 in 10.0 mi WNW 9.2 mph - 0.00 in   Overcast
3:53 PM 57.0 °F 51.1 °F 81% 29.76 in 10.0 mi West 8.1 mph - 0.00 in   Overcast
4:53 PM 57.0 °F 48.9 °F 74% 29.77 in 10.0 mi WSW 3.5 mph - 0.00 in   Overcast
5:53 PM 57.0 °F 45.0 °F 64% 29.79 in 10.0 mi Variable 3.5 mph - N/A   Mostly Cloudy
7:53 PM 51.1 °F 45.0 °F 80% 29.83 in 10.0 mi Calm Calm - N/A   Mostly Cloudy
8:53 PM 53.1 °F 39.9 °F 61% 29.85 in 10.0 mi Variable 4.6 mph - N/A   Clear
9:53 PM 52.0 °F 37.0 °F 57% 29.87 in 10.0 mi West 5.8 mph - N/A   Clear
10:53 PM 46.0 °F 39.0 °F 76% 29.90 in 10.0 mi Calm Calm - N/A   Clear
11:53 PM 51.1 °F 36.0 °F 56% 29.91 in 10.0 mi WNW 9.2 mph 20.7 mph N/A   Clear